Flag for Germany Weather past 2 weeks in Radolfzell am Bodensee, Baden-Württemberg, Germany

Now
62 °F

Light rain. Low clouds.


Feels Like: 62 °F
Forecast: 55 / 70 °F
Wind: 1 mph from Northwest

Location: Konstanz

Current Time: Sep 20, 2014 at 6:53:58 AM

Latest Report: Sep 20, 2014 at 6:00 AM


Visibility: 4 mi

Pressure: 29.99 "Hg

Humidity: 97%

Dew point: 61 °F

Location of Radolfzell am BodenseeLocation

Historic Weather in Radolfzell am Bodensee — Graph

°F

Radolfzell am Bodensee temperature yesterday

Maximum temperature yesterday: 76 °F (at 2:00 PM)
Minimum temperature yesterday: 60 °F (at 5:00 AM)
Average temperature yesterday: 66 °F

Past Weeks' High & Low Weather Summary

 TemperatureHumidityPressure
High79 °F (Sep 6, 5:00 PM)99% (Sep 7, 7:00 AM)30.15 "Hg (Sep 7, 7:00 AM)
Low49 °F (Sep 12, 7:00 AM)43% (Sep 6, 6:00 PM)29.80 "Hg (Sep 17, 6:00 PM)
Average63 °F83%29.97 "Hg
* Reported Sep 5 6:00 AM — Sep 20 6:00 AM, Radolfzell am Bodensee, Weather by CustomWeather, © 2014

Note: Actual official high and low records may vary slightly from our data, if they occured in-between our weather recording intervals... More about our weather records

Advertising

Radolfzell am Bodensee weather history for previous 24 hours

 ConditionsComfort  
Time TempWeatherWind HumidityBarometerVisibility
6:00 AM
Sep 20
62 °FLight rain. Low clouds.1 mph97%29.99 "Hg4 mi
5:00 AM62 °FLight rain. Passing clouds.2 mph97%29.99 "Hg3 mi
4:00 AM62 °FPassing clouds.1 mph97%29.99 "Hg4 mi
3:00 AM62 °FLight rain. Passing clouds.1 mph96%30.00 "Hg7 mi
2:00 AM63 °FLight rain. Passing clouds.2 mph97%29.99 "Hg5 mi
1:00 AM63 °FRain. Passing clouds.1 mph96%30.00 "Hg3 mi
12:00 AM64 °FLight rain. Clear.2 mph93%30.00 "Hg11 mi
11:00 PM
Sep 19
64 °FOvercast.1 mph92%29.98 "Hg14 mi
10:00 PM65 °FPassing clouds.2 mph90%29.97 "Hg16 mi
9:00 PM65 °FPassing clouds.1 mph87%29.97 "Hg28 mi
8:00 PM67 °FOvercast.1 mph82%29.95 "Hg28 mi
7:00 PM71 °FOvercast.1 mph69%29.94 "Hg28 mi
6:00 PM71 °FOvercast.2 mph70%29.93 "Hg28 mi
5:00 PM72 °FOvercast.1 mph66%29.92 "Hg28 mi
4:00 PM74 °FOvercast.2 mph62%29.91 "Hg28 mi
3:00 PM75 °FOvercast.1 mph54%29.91 "Hg28 mi
2:00 PM76 °FPartly sunny.1 mph50%29.91 "Hg16 mi
1:00 PM73 °FPartly sunny.2 mph56%29.93 "Hg11 mi
12:00 PM71 °FPartly sunny.1 mph62%29.94 "Hg9 mi
11:00 AM66 °FOvercast.2 mph80%29.95 "Hg4 mi
10:00 AM64 °FFog.1 mph90%29.96 "Hg2 mi
9:00 AM61 °FFog.2 mph96%29.97 "Hg2 mi
8:00 AM61 °FFog.1 mph98%29.96 "Hg3 mi
7:00 AM60 °FFog.1 mph98%29.94 "Hg4 mi
6:00 AM60 °FPassing clouds.1 mph96%29.93 "Hg6 mi
Weather by CustomWeather, © 2014

See weather overviewHow to use our weather pages